MFC-Alkoven Außentemperatur Messungen

Zurück zum Überblick

Zeitpunkt Temperatur Luftfeuchte
21.09.2021 23:57:17 11,2 C 86,0%
21.09.2021 23:50:16 11,2 C 86,0%
21.09.2021 23:43:14 11,1 C 86,0%
21.09.2021 23:36:12 11,2 C 86,0%
21.09.2021 23:29:09 11,3 C 86,0%
21.09.2021 23:22:09 11,3 C 86,0%
21.09.2021 23:15:06 11,3 C 85,0%
21.09.2021 23:08:03 11,3 C 85,0%
21.09.2021 23:01:01 11,3 C 85,0%
21.09.2021 22:53:58 11,3 C 85,0%
21.09.2021 22:46:57 11,5 C 85,0%
21.09.2021 22:39:55 11,5 C 84,0%
21.09.2021 22:32:59 11,5 C 84,0%
21.09.2021 22:25:50 11,5 C 84,0%
21.09.2021 22:18:48 11,6 C 84,0%
21.09.2021 22:11:46 11,7 C 84,0%
21.09.2021 22:04:44 12,0 C 83,0%
21.09.2021 21:57:42 12,2 C 82,0%
21.09.2021 21:50:40 12,3 C 82,0%
21.09.2021 21:43:39 12,5 C 82,0%
21.09.2021 21:36:37 12,6 C 82,0%
21.09.2021 21:29:37 12,6 C 82,0%
21.09.2021 21:22:36 12,7 C 82,0%
21.09.2021 21:15:33 12,8 C 82,0%
21.09.2021 21:08:30 12,9 C 81,0%
21.09.2021 21:01:29 12,9 C 81,0%
21.09.2021 20:54:27 13,0 C 81,0%
21.09.2021 20:47:25 13,1 C 80,0%
21.09.2021 20:40:22 13,2 C 79,0%
21.09.2021 20:33:20 13,2 C 80,0%
21.09.2021 20:26:19 13,3 C 80,0%
21.09.2021 20:19:17 13,4 C 80,0%
21.09.2021 20:12:14 13,5 C 80,0%
21.09.2021 20:05:11 13,5 C 80,0%
21.09.2021 19:58:09 13,7 C 79,0%
21.09.2021 19:51:08 13,8 C 77,0%
21.09.2021 19:44:05 13,9 C 77,0%
21.09.2021 19:37:04 14,0 C 77,0%
21.09.2021 19:30:03 14,1 C 77,0%
21.09.2021 19:23:02 14,2 C 79,0%
21.09.2021 19:15:59 14,3 C 78,0%
21.09.2021 19:08:58 14,3 C 77,0%
21.09.2021 19:01:55 14,3 C 77,0%
21.09.2021 18:54:52 14,4 C 77,0%
21.09.2021 18:47:51 14,6 C 76,0%
21.09.2021 18:40:47 14,9 C 74,0%
21.09.2021 18:33:46 15,0 C 74,0%
21.09.2021 18:26:44 15,2 C 74,0%
21.09.2021 18:19:43 15,4 C 74,0%
21.09.2021 18:12:40 15,5 C 73,0%
21.09.2021 18:05:39 15,6 C 72,0%
21.09.2021 17:58:38 15,8 C 71,0%
21.09.2021 17:51:37 16,0 C 69,0%
21.09.2021 17:44:36 16,2 C 67,0%
21.09.2021 17:37:34 16,3 C 67,0%
21.09.2021 17:30:31 16,4 C 66,0%
21.09.2021 17:23:35 16,5 C 65,0%
21.09.2021 17:16:27 16,7 C 63,0%
21.09.2021 17:09:25 17,1 C 61,0%
21.09.2021 17:02:23 17,3 C 61,0%
21.09.2021 16:55:23 17,4 C 61,0%
21.09.2021 16:48:22 17,3 C 61,0%
21.09.2021 16:41:20 17,1 C 59,0%
21.09.2021 16:34:19 17,2 C 59,0%
21.09.2021 16:27:16 17,3 C 59,0%
21.09.2021 16:20:14 17,6 C 59,0%
21.09.2021 16:13:13 17,8 C 57,0%
21.09.2021 16:06:11 18,0 C 57,0%
21.09.2021 15:59:10 17,9 C 57,0%
21.09.2021 15:52:07 18,2 C 57,0%
21.09.2021 15:45:06 18,3 C 56,0%
21.09.2021 15:38:06 18,4 C 56,0%
21.09.2021 15:31:02 18,7 C 55,0%
21.09.2021 15:23:59 18,7 C 56,0%
21.09.2021 15:16:58 18,1 C 57,0%
21.09.2021 15:10:02 17,6 C 58,0%
21.09.2021 15:02:54 17,6 C 58,0%
21.09.2021 14:55:53 17,8 C 56,0%
21.09.2021 14:48:49 18,1 C 56,0%
21.09.2021 14:41:45 18,2 C 55,0%
21.09.2021 14:34:44 18,2 C 55,0%
21.09.2021 14:27:42 18,4 C 55,0%
21.09.2021 14:20:41 19,2 C 55,0%
21.09.2021 14:13:37 19,3 C 55,0%
21.09.2021 14:06:34 19,4 C 54,0%
21.09.2021 13:59:32 19,3 C 55,0%
21.09.2021 13:52:30 19,5 C 55,0%
21.09.2021 13:45:29 19,9 C 54,0%
21.09.2021 13:38:27 19,9 C 55,0%
21.09.2021 13:31:26 19,5 C 55,0%
21.09.2021 13:24:24 19,6 C 55,0%
21.09.2021 13:17:20 19,6 C 55,0%
21.09.2021 13:10:19 20,3 C 53,0%
21.09.2021 13:03:16 21,0 C 55,0%
21.09.2021 12:56:13 20,3 C 55,0%
21.09.2021 12:49:11 19,5 C 55,0%
21.09.2021 12:42:08 19,6 C 55,0%
21.09.2021 12:35:04 19,8 C 58,0%
21.09.2021 12:28:04 19,5 C 58,0%
21.09.2021 12:21:02 18,9 C 58,0%
21.09.2021 12:13:59 19,4 C 60,0%
21.09.2021 12:06:56 19,3 C 59,0%
21.09.2021 11:59:55 19,4 C 63,0%
21.09.2021 11:52:53 19,1 C 60,0%
21.09.2021 11:45:51 18,7 C 61,0%
21.09.2021 11:38:49 18,7 C 63,0%
21.09.2021 11:31:46 18,1 C 65,0%
21.09.2021 11:24:44 17,6 C 64,0%
21.09.2021 11:17:43 17,4 C 65,0%
21.09.2021 11:10:47 17,2 C 67,0%
21.09.2021 11:03:41 16,9 C 67,0%
21.09.2021 10:56:41 16,6 C 68,0%
21.09.2021 10:49:37 16,5 C 69,0%
21.09.2021 10:42:35 16,8 C 69,0%
21.09.2021 10:35:32 16,7 C 70,0%
21.09.2021 10:28:30 16,6 C 71,0%
21.09.2021 10:21:27 16,2 C 73,0%
21.09.2021 10:14:24 15,6 C 75,0%
21.09.2021 10:07:28 15,0 C 75,0%
21.09.2021 09:53:19 14,1 C 76,0%
21.09.2021 09:46:17 14,0 C 77,0%
21.09.2021 09:39:15 13,9 C 77,0%
21.09.2021 09:32:15 14,0 C 77,0%
21.09.2021 09:25:13 13,9 C 78,0%
21.09.2021 09:18:10 13,9 C 79,0%
21.09.2021 09:11:09 13,8 C 81,0%
21.09.2021 09:04:07 13,5 C 81,0%
21.09.2021 08:57:05 13,3 C 81,0%
21.09.2021 08:50:03 13,1 C 82,0%
21.09.2021 08:43:00 12,9 C 84,0%
21.09.2021 08:35:57 12,6 C 84,0%
21.09.2021 08:28:54 12,6 C 86,0%
21.09.2021 08:21:54 12,4 C 86,0%
21.09.2021 08:14:51 12,3 C 88,0%
21.09.2021 08:07:49 12,1 C 87,0%
21.09.2021 08:00:48 12,0 C 88,0%
21.09.2021 07:53:46 11,9 C 89,0%
21.09.2021 07:46:44 11,7 C 90,0%
21.09.2021 07:39:42 11,5 C 89,0%
21.09.2021 07:32:40 11,4 C 90,0%
21.09.2021 07:25:40 11,4 C 91,0%
21.09.2021 07:18:37 11,3 C 91,0%
21.09.2021 07:11:34 11,2 C 92,0%
21.09.2021 07:04:32 11,1 C 92,0%
21.09.2021 06:57:31 10,9 C 92,0%
21.09.2021 06:50:31 10,8 C 92,0%
21.09.2021 06:43:28 10,8 C 92,0%
21.09.2021 06:36:24 10,7 C 92,0%
21.09.2021 06:29:22 10,7 C 93,0%
21.09.2021 06:22:20 10,6 C 93,0%
21.09.2021 06:15:17 10,6 C 92,0%
21.09.2021 06:08:16 10,6 C 93,0%
21.09.2021 06:01:15 10,5 C 93,0%
21.09.2021 05:54:13 10,6 C 93,0%
21.09.2021 05:47:13 10,6 C 92,0%
21.09.2021 05:40:12 10,6 C 92,0%
21.09.2021 05:33:10 10,7 C 91,0%
21.09.2021 05:26:08 10,7 C 91,0%
21.09.2021 05:19:05 10,7 C 91,0%
21.09.2021 05:12:05 10,7 C 91,0%
21.09.2021 05:05:03 10,7 C 91,0%
21.09.2021 04:58:01 10,7 C 92,0%
21.09.2021 04:50:59 10,7 C 91,0%
21.09.2021 04:43:57 10,7 C 91,0%
21.09.2021 04:36:54 10,8 C 91,0%
21.09.2021 04:29:52 10,8 C 91,0%
21.09.2021 04:22:50 10,8 C 91,0%
21.09.2021 04:15:48 10,7 C 91,0%
21.09.2021 04:08:48 10,8 C 91,0%
21.09.2021 04:01:45 10,8 C 91,0%
21.09.2021 03:54:42 10,8 C 91,0%
21.09.2021 03:47:41 10,8 C 91,0%
21.09.2021 03:40:40 10,8 C 91,0%
21.09.2021 03:33:39 10,9 C 91,0%
21.09.2021 03:26:37 10,8 C 91,0%
21.09.2021 03:19:35 10,8 C 91,0%
21.09.2021 03:12:34 10,8 C 91,0%
21.09.2021 03:05:31 10,9 C 91,0%
21.09.2021 02:58:30 11,0 C 91,0%
21.09.2021 02:51:28 11,1 C 91,0%
21.09.2021 02:44:26 11,1 C 90,0%
21.09.2021 02:37:23 11,1 C 90,0%
21.09.2021 02:30:20 11,1 C 90,0%
21.09.2021 02:23:20 11,1 C 90,0%
21.09.2021 02:16:19 11,2 C 90,0%
21.09.2021 02:09:16 11,2 C 90,0%
21.09.2021 02:02:15 11,3 C 90,0%
21.09.2021 01:55:13 11,3 C 90,0%
21.09.2021 01:48:09 11,3 C 90,0%
21.09.2021 01:41:08 11,4 C 90,0%
21.09.2021 01:34:05 11,3 C 89,0%
21.09.2021 01:27:09 11,4 C 89,0%
21.09.2021 01:20:01 11,4 C 91,0%
21.09.2021 01:12:58 11,4 C 91,0%
21.09.2021 01:05:57 11,4 C 92,0%
21.09.2021 00:58:55 11,4 C 92,0%
21.09.2021 00:51:53 11,5 C 92,0%
21.09.2021 00:44:52 11,5 C 92,0%
21.09.2021 00:37:50 11,5 C 91,0%
21.09.2021 00:30:48 11,7 C 91,0%
21.09.2021 00:23:44 11,8 C 91,0%
21.09.2021 00:16:44 11,8 C 91,0%
21.09.2021 00:09:42 11,8 C 91,0%
21.09.2021 00:02:40 11,8 C 91,0%